Year,Month,Day,Hour,Minute,Value (Times are PST for temperature in C)
2016,04,20,00,00,14.20
2016,04,20,00,01,14.20
2016,04,20,00,02,14.20
2016,04,20,00,03,14.20
2016,04,20,00,04,14.20
2016,04,20,00,05,14.20
2016,04,20,00,06,14.20
2016,04,20,00,07,14.20
2016,04,20,00,08,14.20
2016,04,20,00,09,14.20
2016,04,20,00,10,14.20
2016,04,20,00,11,14.20
2016,04,20,00,12,14.30
2016,04,20,00,13,14.30
2016,04,20,00,14,14.30
2016,04,20,00,15,14.30
2016,04,20,00,16,14.30
2016,04,20,00,17,14.40
2016,04,20,00,18,14.40
2016,04,20,00,19,14.40
2016,04,20,00,20,14.50
2016,04,20,00,21,14.50
2016,04,20,00,22,14.50
2016,04,20,00,23,14.50
2016,04,20,00,24,14.50
2016,04,20,00,25,14.50
2016,04,20,00,26,14.50
2016,04,20,00,27,14.50
2016,04,20,00,28,14.50
2016,04,20,00,29,14.40
2016,04,20,00,30,14.40
2016,04,20,00,31,14.40
2016,04,20,00,32,14.40
2016,04,20,00,33,14.40
2016,04,20,00,34,14.40
2016,04,20,00,35,14.40
2016,04,20,00,36,14.40
2016,04,20,00,37,14.40
2016,04,20,00,38,14.40
2016,04,20,00,39,14.30
2016,04,20,00,40,14.30
2016,04,20,00,41,14.30
2016,04,20,00,42,14.30
2016,04,20,00,43,14.30
2016,04,20,00,44,14.20
2016,04,20,00,45,14.20
2016,04,20,00,46,14.10
2016,04,20,00,47,14.10
2016,04,20,00,48,14.10
2016,04,20,00,49,14.00
2016,04,20,00,50,14.00
2016,04,20,00,51,13.90
2016,04,20,00,52,13.90
2016,04,20,00,53,13.90
2016,04,20,00,54,13.90
2016,04,20,00,55,13.80
2016,04,20,00,56,13.80
2016,04,20,00,57,13.80
2016,04,20,00,58,13.80
2016,04,20,00,59,13.80
2016,04,20,01,00,13.80
2016,04,20,01,01,13.80
2016,04,20,01,02,13.80
2016,04,20,01,03,13.80
2016,04,20,01,04,13.80
2016,04,20,01,05,13.80
2016,04,20,01,06,13.80
2016,04,20,01,07,13.70
2016,04,20,01,08,13.70
2016,04,20,01,09,13.70
2016,04,20,01,10,13.70
2016,04,20,01,11,13.70
2016,04,20,01,12,13.70
2016,04,20,01,13,13.60
2016,04,20,01,14,13.60
2016,04,20,01,15,13.60
2016,04,20,01,16,13.60
2016,04,20,01,17,13.50
2016,04,20,01,18,13.50
2016,04,20,01,19,13.40
2016,04,20,01,20,13.40
2016,04,20,01,21,13.40
2016,04,20,01,22,13.40
2016,04,20,01,23,13.30
2016,04,20,01,24,13.30
2016,04,20,01,25,13.30
2016,04,20,01,26,13.30
2016,04,20,01,27,13.20
2016,04,20,01,28,13.20
2016,04,20,01,29,13.20
2016,04,20,01,30,13.10
2016,04,20,01,31,13.10
2016,04,20,01,32,13.10
2016,04,20,01,33,13.00
2016,04,20,01,34,13.00
2016,04,20,01,35,13.00
2016,04,20,01,36,12.90
2016,04,20,01,37,12.90
2016,04,20,01,38,12.90
2016,04,20,01,39,12.80
2016,04,20,01,40,12.80
2016,04,20,01,41,12.80
2016,04,20,01,42,12.80
2016,04,20,01,43,12.70
2016,04,20,01,44,12.70
2016,04,20,01,45,12.60
2016,04,20,01,46,12.60
2016,04,20,01,47,12.60
2016,04,20,01,48,12.50
2016,04,20,01,49,12.50
2016,04,20,01,50,12.40
2016,04,20,01,51,12.40
2016,04,20,01,52,12.40
2016,04,20,01,53,12.40
2016,04,20,01,54,12.30
2016,04,20,01,55,12.30
2016,04,20,01,56,12.30
2016,04,20,01,57,12.20
2016,04,20,01,58,12.20
2016,04,20,01,59,12.20
2016,04,20,02,00,12.20
2016,04,20,02,01,12.20
2016,04,20,02,02,12.10
2016,04,20,02,03,12.10
2016,04,20,02,04,12.10
2016,04,20,02,05,12.10
2016,04,20,02,06,12.00
2016,04,20,02,07,12.00
2016,04,20,02,08,12.00
2016,04,20,02,09,12.00
2016,04,20,02,10,11.90
2016,04,20,02,11,11.90
2016,04,20,02,12,11.90
2016,04,20,02,13,11.90
2016,04,20,02,14,11.90
2016,04,20,02,15,11.80
2016,04,20,02,16,11.80
2016,04,20,02,17,11.80
2016,04,20,02,18,11.80
2016,04,20,02,19,11.80
2016,04,20,02,20,11.80
2016,04,20,02,21,11.70
2016,04,20,02,22,11.70
2016,04,20,02,23,11.70
2016,04,20,02,24,11.70
2016,04,20,02,25,11.70
2016,04,20,02,26,11.70
2016,04,20,02,27,11.60
2016,04,20,02,28,11.60
2016,04,20,02,29,11.60
2016,04,20,02,30,11.60
2016,04,20,02,31,11.60
2016,04,20,02,32,11.60
2016,04,20,02,33,11.60
2016,04,20,02,34,11.60
2016,04,20,02,35,11.60
2016,04,20,02,36,11.50
2016,04,20,02,37,11.50
2016,04,20,02,38,11.50
2016,04,20,02,39,11.50
2016,04,20,02,40,11.50
2016,04,20,02,41,11.40
2016,04,20,02,42,11.40
2016,04,20,02,43,11.40
2016,04,20,02,44,11.40
2016,04,20,02,45,11.40
2016,04,20,02,46,11.40
2016,04,20,02,47,11.40
2016,04,20,02,48,11.40
2016,04,20,02,49,11.40
2016,04,20,02,50,11.40
2016,04,20,02,51,11.40
2016,04,20,02,52,11.40
2016,04,20,02,53,11.40
2016,04,20,02,54,11.40
2016,04,20,02,55,11.40
2016,04,20,02,56,11.40
2016,04,20,02,57,11.50
2016,04,20,02,58,11.50
2016,04,20,02,59,11.50
2016,04,20,03,00,11.50
2016,04,20,03,01,11.50
2016,04,20,03,02,11.50
2016,04,20,03,03,11.50
2016,04,20,03,04,11.50
2016,04,20,03,05,11.50
2016,04,20,03,06,11.50
2016,04,20,03,07,11.50
2016,04,20,03,08,11.50
2016,04,20,03,09,11.50
2016,04,20,03,10,11.50
2016,04,20,03,11,11.60
2016,04,20,03,12,11.60
2016,04,20,03,13,11.60
2016,04,20,03,14,11.60
2016,04,20,03,15,11.60
2016,04,20,03,16,11.60
2016,04,20,03,17,11.60
2016,04,20,03,18,11.50
2016,04,20,03,19,11.50
2016,04,20,03,20,11.50
2016,04,20,03,21,11.50
2016,04,20,03,22,11.40
2016,04,20,03,23,11.40
2016,04,20,03,24,11.40
2016,04,20,03,25,11.40
2016,04,20,03,26,11.40
2016,04,20,03,27,11.40
2016,04,20,03,28,11.40
2016,04,20,03,29,11.40
2016,04,20,03,30,11.40
2016,04,20,03,31,11.40
2016,04,20,03,32,11.40
2016,04,20,03,33,11.30
2016,04,20,03,34,11.30
2016,04,20,03,35,11.30
2016,04,20,03,36,11.30
2016,04,20,03,37,11.30
2016,04,20,03,38,11.30
2016,04,20,03,39,11.30
2016,04,20,03,40,11.30
2016,04,20,03,41,11.30
2016,04,20,03,42,11.30
2016,04,20,03,43,11.30
2016,04,20,03,44,11.30
2016,04,20,03,45,11.30
2016,04,20,03,46,11.30
2016,04,20,03,47,11.30
2016,04,20,03,48,11.30
2016,04,20,03,49,11.30
2016,04,20,03,50,11.30
2016,04,20,03,51,11.30
2016,04,20,03,52,11.30
2016,04,20,03,53,11.30
2016,04,20,03,54,11.30
2016,04,20,03,55,11.30
2016,04,20,03,56,11.20
2016,04,20,03,57,11.20
2016,04,20,03,58,11.20
2016,04,20,03,59,11.20
2016,04,20,04,00,11.20
2016,04,20,04,01,11.20
2016,04,20,04,02,11.20
2016,04,20,04,03,11.20
2016,04,20,04,04,11.10
2016,04,20,04,05,11.10
2016,04,20,04,06,11.10
2016,04,20,04,07,11.10
2016,04,20,04,08,11.10
2016,04,20,04,09,11.10
2016,04,20,04,10,11.10
2016,04,20,04,11,11.10
2016,04,20,04,12,11.10
2016,04,20,04,13,11.10
2016,04,20,04,14,11.10
2016,04,20,04,15,11.10
2016,04,20,04,16,11.10
2016,04,20,04,17,11.10
2016,04,20,04,18,11.10
2016,04,20,04,19,11.00
2016,04,20,04,20,11.00
2016,04,20,04,21,11.00
2016,04,20,04,22,11.00
2016,04,20,04,23,11.00
2016,04,20,04,24,11.00
2016,04,20,04,25,11.00
2016,04,20,04,26,11.00
2016,04,20,04,27,11.10
2016,04,20,04,28,11.10
2016,04,20,04,29,11.10
2016,04,20,04,30,11.10
2016,04,20,04,31,11.10
2016,04,20,04,32,11.10
2016,04,20,04,33,11.10
2016,04,20,04,34,11.10
2016,04,20,04,35,11.10
2016,04,20,04,36,11.10
2016,04,20,04,37,11.10
2016,04,20,04,38,11.10
2016,04,20,04,39,11.10
2016,04,20,04,40,11.10
2016,04,20,04,41,11.20
2016,04,20,04,42,11.10
2016,04,20,04,43,11.10
2016,04,20,04,44,11.10
2016,04,20,04,45,11.10
2016,04,20,04,46,11.10
2016,04,20,04,47,11.10
2016,04,20,04,48,11.10
2016,04,20,04,49,11.10
2016,04,20,04,50,11.10
2016,04,20,04,51,11.10
2016,04,20,04,52,11.10
2016,04,20,04,53,11.10
2016,04,20,04,54,11.10
2016,04,20,04,55,11.10
2016,04,20,04,56,11.10
2016,04,20,04,57,11.00
2016,04,20,04,58,11.00
2016,04,20,04,59,11.00
2016,04,20,05,00,11.00
2016,04,20,05,01,11.00
2016,04,20,05,02,10.90
2016,04,20,05,03,10.90
2016,04,20,05,04,10.90
2016,04,20,05,05,10.90
2016,04,20,05,06,10.90
2016,04,20,05,07,10.90
2016,04,20,05,08,10.90
2016,04,20,05,09,10.90
2016,04,20,05,10,10.90
2016,04,20,05,11,10.90
2016,04,20,05,12,10.90
2016,04,20,05,13,10.90
2016,04,20,05,14,10.90
2016,04,20,05,15,10.90
2016,04,20,05,16,10.90
2016,04,20,05,17,10.90
2016,04,20,05,18,10.90
2016,04,20,05,19,10.90
2016,04,20,05,20,10.90
2016,04,20,05,21,10.90
2016,04,20,05,22,10.90
2016,04,20,05,23,10.90
2016,04,20,05,24,10.90
2016,04,20,05,25,10.80
2016,04,20,05,26,10.80
2016,04,20,05,27,10.80
2016,04,20,05,28,10.80
2016,04,20,05,29,10.80
2016,04,20,05,30,10.80
2016,04,20,05,31,10.80
2016,04,20,05,32,10.80
2016,04,20,05,33,10.80
2016,04,20,05,34,10.80
2016,04,20,05,35,10.90
2016,04,20,05,36,10.90
2016,04,20,05,37,10.90
2016,04,20,05,38,10.90
2016,04,20,05,39,10.90
2016,04,20,05,40,10.90
2016,04,20,05,41,10.90
2016,04,20,05,42,10.90
2016,04,20,05,43,10.90
2016,04,20,05,44,10.90
2016,04,20,05,45,10.90
2016,04,20,05,46,10.90
2016,04,20,05,47,10.90
2016,04,20,05,48,10.90
2016,04,20,05,49,10.80
2016,04,20,05,50,10.80
2016,04,20,05,51,10.80
2016,04,20,05,52,10.80
2016,04,20,05,53,10.80
2016,04,20,05,54,10.70
2016,04,20,05,55,10.70
2016,04,20,05,56,10.70
2016,04,20,05,57,10.70
2016,04,20,05,58,10.70
2016,04,20,05,59,10.70
2016,04,20,06,00,10.70
2016,04,20,06,01,10.70
2016,04,20,06,02,10.70
2016,04,20,06,03,10.70
2016,04,20,06,04,10.70
2016,04,20,06,05,10.60
2016,04,20,06,06,10.60
2016,04,20,06,07,10.60
2016,04,20,06,08,10.60
2016,04,20,06,09,10.60
2016,04,20,06,10,10.60
2016,04,20,06,11,10.60
2016,04,20,06,12,10.60
2016,04,20,06,13,10.50
2016,04,20,06,14,10.50
2016,04,20,06,15,10.50
2016,04,20,06,16,10.50
2016,04,20,06,17,10.50
2016,04,20,06,18,10.50
2016,04,20,06,19,10.50
2016,04,20,06,20,10.50
2016,04,20,06,21,10.50
2016,04,20,06,22,10.50
2016,04,20,06,23,10.40
2016,04,20,06,24,10.40
2016,04,20,06,25,10.40
2016,04,20,06,26,10.40
2016,04,20,06,27,10.40
2016,04,20,06,28,10.30
2016,04,20,06,29,10.30
2016,04,20,06,30,10.30
2016,04,20,06,31,10.30
2016,04,20,06,32,10.30
2016,04,20,06,33,10.20
2016,04,20,06,34,10.20
2016,04,20,06,35,10.20
2016,04,20,06,36,10.20
2016,04,20,06,37,10.20
2016,04,20,06,38,10.20
2016,04,20,06,39,10.20
2016,04,20,06,40,10.20
2016,04,20,06,41,10.20
2016,04,20,06,42,10.20
2016,04,20,06,43,10.20
2016,04,20,06,44,10.20
2016,04,20,06,45,10.20
2016,04,20,06,46,10.20
2016,04,20,06,47,10.20
2016,04,20,06,48,10.20
2016,04,20,06,49,10.20
2016,04,20,06,50,10.30
2016,04,20,06,51,10.30
2016,04,20,06,52,10.30
2016,04,20,06,53,10.30
2016,04,20,06,54,10.30
2016,04,20,06,55,10.30
2016,04,20,06,56,10.30
2016,04,20,06,57,10.30
2016,04,20,06,58,10.30
2016,04,20,06,59,10.30
2016,04,20,07,00,10.40
2016,04,20,07,01,10.40
2016,04,20,07,02,10.40
2016,04,20,07,03,10.40
2016,04,20,07,04,10.50
2016,04,20,07,05,10.50
2016,04,20,07,06,10.50
2016,04,20,07,07,10.60
2016,04,20,07,08,10.60
2016,04,20,07,09,10.60
2016,04,20,07,10,10.70
2016,04,20,07,11,10.70
2016,04,20,07,12,10.70
2016,04,20,07,13,10.80
2016,04,20,07,14,10.80
2016,04,20,07,15,10.80
2016,04,20,07,16,10.80
2016,04,20,07,17,10.90
2016,04,20,07,18,10.90
2016,04,20,07,19,10.90
2016,04,20,07,20,11.00
2016,04,20,07,21,11.00
2016,04,20,07,22,11.10
2016,04,20,07,23,11.10
2016,04,20,07,24,11.10
2016,04,20,07,25,11.20
2016,04,20,07,26,11.20
2016,04,20,07,27,11.30
2016,04,20,07,28,11.30
2016,04,20,07,29,11.40
2016,04,20,07,30,11.50
2016,04,20,07,31,11.60
2016,04,20,07,32,11.70
2016,04,20,07,33,11.70
2016,04,20,07,34,11.80
2016,04,20,07,35,11.90
2016,04,20,07,36,12.00
2016,04,20,07,37,12.10
2016,04,20,07,38,12.20
2016,04,20,07,39,12.30
2016,04,20,07,40,12.40
2016,04,20,07,41,12.50
2016,04,20,07,42,12.60
2016,04,20,07,43,12.80
2016,04,20,07,44,12.90
2016,04,20,07,45,13.00
2016,04,20,07,46,13.10
2016,04,20,07,47,13.30
2016,04,20,07,48,13.40
2016,04,20,07,49,13.50
2016,04,20,07,50,13.70
2016,04,20,07,51,13.80
2016,04,20,07,52,14.00
2016,04,20,07,53,14.10
2016,04,20,07,54,14.20
2016,04,20,07,55,14.30
2016,04,20,07,56,14.50
2016,04,20,07,57,14.60
2016,04,20,07,58,14.70
2016,04,20,07,59,14.80
2016,04,20,08,00,14.80
2016,04,20,08,01,14.90
2016,04,20,08,02,15.00
2016,04,20,08,03,15.10
2016,04,20,08,04,15.10
2016,04,20,08,05,15.20
2016,04,20,08,06,15.30
2016,04,20,08,07,15.40
2016,04,20,08,08,15.50
2016,04,20,08,09,15.60
2016,04,20,08,10,15.70
2016,04,20,08,11,15.80
2016,04,20,08,12,15.90
2016,04,20,08,13,15.90
2016,04,20,08,14,16.10
2016,04,20,08,15,16.20
2016,04,20,08,16,16.30
2016,04,20,08,17,16.40
2016,04,20,08,18,16.40
2016,04,20,08,19,16.50
2016,04,20,08,20,16.60
2016,04,20,08,21,16.60
2016,04,20,08,22,16.60
2016,04,20,08,23,16.70
2016,04,20,08,24,16.70
2016,04,20,08,25,16.80
2016,04,20,08,26,16.80
2016,04,20,08,27,16.90
2016,04,20,08,28,16.90
2016,04,20,08,29,17.00
2016,04,20,08,30,17.10
2016,04,20,08,31,17.10
2016,04,20,08,32,17.20
2016,04,20,08,33,17.30
2016,04,20,08,34,17.30
2016,04,20,08,35,17.40
2016,04,20,08,36,17.50
2016,04,20,08,37,17.50
2016,04,20,08,38,17.60
2016,04,20,08,39,17.70
2016,04,20,08,40,17.70
2016,04,20,08,41,17.80
2016,04,20,08,42,17.90
2016,04,20,08,43,17.90
2016,04,20,08,44,18.00
2016,04,20,08,45,18.10
2016,04,20,08,46,18.20
2016,04,20,08,47,18.20
2016,04,20,08,48,18.30
2016,04,20,08,49,18.30
2016,04,20,08,50,18.30
2016,04,20,08,51,18.30
2016,04,20,08,52,18.30
2016,04,20,08,53,18.30
2016,04,20,08,54,18.20
2016,04,20,08,55,18.20
2016,04,20,08,56,18.20
2016,04,20,08,57,18.10
2016,04,20,08,58,18.10
2016,04,20,08,59,18.10
2016,04,20,09,00,18.10
2016,04,20,09,01,18.20
2016,04,20,09,02,18.20
2016,04,20,09,03,18.20
2016,04,20,09,04,18.30
2016,04,20,09,05,18.30
2016,04,20,09,06,18.40
2016,04,20,09,07,18.50
2016,04,20,09,08,18.50
2016,04,20,09,09,18.60
2016,04,20,09,10,18.60
2016,04,20,09,11,18.70
2016,04,20,09,12,18.70
2016,04,20,09,13,18.70
2016,04,20,09,14,18.80
2016,04,20,09,15,18.80
2016,04,20,09,16,18.80
2016,04,20,09,17,18.90
2016,04,20,09,18,18.90
2016,04,20,09,19,18.90
2016,04,20,09,20,18.90
2016,04,20,09,21,18.90
2016,04,20,09,22,18.90
2016,04,20,09,23,18.90
2016,04,20,09,24,18.90
2016,04,20,09,25,19.00
2016,04,20,09,26,19.00
2016,04,20,09,27,19.10
2016,04,20,09,28,19.10
2016,04,20,09,29,19.10
2016,04,20,09,30,19.20
2016,04,20,09,31,19.20
2016,04,20,09,32,19.20
2016,04,20,09,33,19.20
2016,04,20,09,34,19.20
2016,04,20,09,35,19.20
2016,04,20,09,36,19.20
2016,04,20,09,37,19.20
2016,04,20,09,38,19.20
2016,04,20,09,39,19.20
2016,04,20,09,40,19.30
2016,04,20,09,41,19.30
2016,04,20,09,42,19.30
2016,04,20,09,43,19.30
2016,04,20,09,44,19.30
2016,04,20,09,45,19.30
2016,04,20,09,46,19.40
2016,04,20,09,47,19.40
2016,04,20,09,48,19.40
2016,04,20,09,49,19.50
2016,04,20,09,50,19.60
2016,04,20,09,51,19.60
2016,04,20,09,52,19.60
2016,04,20,09,53,19.60
2016,04,20,09,54,19.60
2016,04,20,09,55,19.70
2016,04,20,09,56,19.70
2016,04,20,09,57,19.70
2016,04,20,09,58,19.70
2016,04,20,09,59,19.80
2016,04,20,10,00,19.80
2016,04,20,10,01,19.90
2016,04,20,10,02,19.90
2016,04,20,10,03,20.00
2016,04,20,10,04,20.10
2016,04,20,10,05,20.10
2016,04,20,10,06,20.20
2016,04,20,10,07,20.30
2016,04,20,10,08,20.30
2016,04,20,10,09,20.40
2016,04,20,10,10,20.40
2016,04,20,10,11,20.40
2016,04,20,10,12,20.40
2016,04,20,10,13,20.40
2016,04,20,10,14,20.40
2016,04,20,10,15,20.40
2016,04,20,10,16,20.50
2016,04,20,10,17,20.50
2016,04,20,10,18,20.50
2016,04,20,10,19,20.50
2016,04,20,10,20,20.50
2016,04,20,10,21,20.50
2016,04,20,10,22,20.60
2016,04,20,10,23,20.60
2016,04,20,10,24,20.60
2016,04,20,10,25,20.60
2016,04,20,10,26,20.60
2016,04,20,10,27,20.70
2016,04,20,10,28,20.70
2016,04,20,10,29,20.70
2016,04,20,10,30,20.70
2016,04,20,10,31,20.80
2016,04,20,10,32,20.80
2016,04,20,10,33,20.80
2016,04,20,10,34,20.80
2016,04,20,10,35,20.80
2016,04,20,10,36,20.70
2016,04,20,10,37,20.80
2016,04,20,10,38,20.80
2016,04,20,10,39,20.80
2016,04,20,10,40,20.80
2016,04,20,10,41,20.80
2016,04,20,10,42,20.80
2016,04,20,10,43,20.80
2016,04,20,10,44,20.80
2016,04,20,10,45,20.80
2016,04,20,10,46,20.80
2016,04,20,10,47,20.80
2016,04,20,10,48,20.80
2016,04,20,10,49,20.80
2016,04,20,10,50,20.80
2016,04,20,10,51,20.80
2016,04,20,10,52,20.80
2016,04,20,10,53,20.80
2016,04,20,10,54,20.80
2016,04,20,10,55,20.80
2016,04,20,10,56,20.80
2016,04,20,10,57,20.90
2016,04,20,10,58,20.90
2016,04,20,10,59,20.90
2016,04,20,11,00,20.90
2016,04,20,11,01,20.90
2016,04,20,11,02,21.00
2016,04,20,11,03,21.10
2016,04,20,11,04,21.20
2016,04,20,11,05,21.20
2016,04,20,11,06,21.30
2016,04,20,11,07,21.30
2016,04,20,11,08,21.30
2016,04,20,11,09,21.30
2016,04,20,11,10,21.30
2016,04,20,11,11,21.30
2016,04,20,11,12,21.30
2016,04,20,11,13,21.30
2016,04,20,11,14,21.40
2016,04,20,11,15,21.40
2016,04,20,11,16,21.40
2016,04,20,11,17,21.50
2016,04,20,11,18,21.50
2016,04,20,11,19,21.60
2016,04,20,11,20,21.60
2016,04,20,11,21,21.60
2016,04,20,11,22,21.60
2016,04,20,11,23,21.60
2016,04,20,11,24,21.60
2016,04,20,11,25,21.60
2016,04,20,11,26,21.70
2016,04,20,11,27,21.70
2016,04,20,11,28,21.70
2016,04,20,11,29,21.80
2016,04,20,11,30,21.80
2016,04,20,11,31,21.80
2016,04,20,11,32,21.90
2016,04,20,11,33,21.90
2016,04,20,11,34,21.90
2016,04,20,11,35,21.90
2016,04,20,11,36,21.90
2016,04,20,11,37,21.90
2016,04,20,11,38,22.00
2016,04,20,11,39,21.90
2016,04,20,11,40,21.90
2016,04,20,11,41,21.90
2016,04,20,11,42,22.00
2016,04,20,11,43,22.00
2016,04,20,11,44,22.10
2016,04,20,11,45,22.10
2016,04,20,11,46,22.10
2016,04,20,11,47,22.10
2016,04,20,11,48,22.20
2016,04,20,11,49,22.20
2016,04,20,11,50,22.30
2016,04,20,11,51,22.30
2016,04,20,11,52,22.40
2016,04,20,11,53,22.50
2016,04,20,11,54,22.60
2016,04,20,11,55,22.60
2016,04,20,11,56,22.70
2016,04,20,11,57,22.70
2016,04,20,11,58,22.80
2016,04,20,11,59,22.80
2016,04,20,12,00,22.80
2016,04,20,12,01,22.80
2016,04,20,12,02,22.80
2016,04,20,12,03,22.80
2016,04,20,12,04,22.80
2016,04,20,12,05,22.80
2016,04,20,12,06,22.80
2016,04,20,12,07,22.80
2016,04,20,12,08,22.80
2016,04,20,12,09,22.80
2016,04,20,12,10,22.90
2016,04,20,12,11,22.90
2016,04,20,12,12,22.90
2016,04,20,12,13,23.00
2016,04,20,12,14,23.10
2016,04,20,12,15,23.10
2016,04,20,12,16,23.20
2016,04,20,12,17,23.20
2016,04,20,12,18,23.20
2016,04,20,12,19,23.30
2016,04,20,12,20,23.30
2016,04,20,12,21,23.30
2016,04,20,12,22,23.40
2016,04,20,12,23,23.40
2016,04,20,12,24,23.40
2016,04,20,12,25,23.30
2016,04,20,12,26,23.40
2016,04,20,12,27,23.40
2016,04,20,12,28,23.30
2016,04,20,12,29,23.30
2016,04,20,12,30,23.30
2016,04,20,12,31,23.30
2016,04,20,12,32,23.30
2016,04,20,12,33,23.30
2016,04,20,12,34,23.30
2016,04,20,12,35,23.30
2016,04,20,12,36,23.30
2016,04,20,12,37,23.30
2016,04,20,12,38,23.30
2016,04,20,12,39,23.30
2016,04,20,12,40,23.30
2016,04,20,12,41,23.30
2016,04,20,12,42,23.30
2016,04,20,12,43,23.30
2016,04,20,12,44,23.40
2016,04,20,12,45,23.40
2016,04,20,12,46,23.40
2016,04,20,12,47,23.40
2016,04,20,12,48,23.40
2016,04,20,12,49,23.40
2016,04,20,12,50,23.40
2016,04,20,12,51,23.40
2016,04,20,12,52,23.40
2016,04,20,12,53,23.40
2016,04,20,12,54,23.40
2016,04,20,12,55,23.40
2016,04,20,12,56,23.40
2016,04,20,12,57,23.50
2016,04,20,12,58,23.50
2016,04,20,12,59,23.50
2016,04,20,13,00,23.60
2016,04,20,13,01,23.60
2016,04,20,13,02,23.60
2016,04,20,13,03,23.60
2016,04,20,13,04,23.60
2016,04,20,13,05,23.70
2016,04,20,13,06,23.70
2016,04,20,13,07,23.70
2016,04,20,13,08,23.70
2016,04,20,13,09,23.70
2016,04,20,13,10,23.70
2016,04,20,13,11,23.70
2016,04,20,13,12,23.70
2016,04,20,13,13,23.60
2016,04,20,13,14,23.60
2016,04,20,13,15,23.60
2016,04,20,13,16,23.70
2016,04,20,13,17,23.70
2016,04,20,13,18,23.70
2016,04,20,13,19,23.70
2016,04,20,13,20,23.80
2016,04,20,13,21,23.80
2016,04,20,13,22,23.90
2016,04,20,13,23,23.90
2016,04,20,13,24,23.90
2016,04,20,13,25,23.90
2016,04,20,13,26,23.90
2016,04,20,13,27,24.00
2016,04,20,13,28,24.00
2016,04,20,13,29,24.10
2016,04,20,13,30,24.10
2016,04,20,13,31,24.20
2016,04,20,13,32,24.20
2016,04,20,13,33,24.20
2016,04,20,13,34,24.20
2016,04,20,13,35,24.20
2016,04,20,13,36,24.30
2016,04,20,13,37,24.30
2016,04,20,13,38,24.40
2016,04,20,13,39,24.50
2016,04,20,13,40,24.60
2016,04,20,13,41,24.60
2016,04,20,13,42,24.70
2016,04,20,13,43,24.80
2016,04,20,13,44,24.80
2016,04,20,13,45,24.80
2016,04,20,13,46,24.80
2016,04,20,13,47,24.80
2016,04,20,13,48,24.70
2016,04,20,13,49,24.70
2016,04,20,13,50,24.70
2016,04,20,13,51,24.80
2016,04,20,13,52,24.80
2016,04,20,13,53,24.80
2016,04,20,13,54,24.80
2016,04,20,13,55,24.80
2016,04,20,13,56,24.80
2016,04,20,13,57,24.90
2016,04,20,13,58,24.90
2016,04,20,13,59,25.00
2016,04,20,14,00,25.00
2016,04,20,14,01,25.10
2016,04,20,14,02,25.10
2016,04,20,14,03,25.10
2016,04,20,14,04,25.10
2016,04,20,14,05,25.10
2016,04,20,14,06,25.10
2016,04,20,14,07,25.10
2016,04,20,14,08,25.10
2016,04,20,14,09,25.20
2016,04,20,14,10,25.20
2016,04,20,14,11,25.20
2016,04,20,14,12,25.20
2016,04,20,14,13,25.20
2016,04,20,14,14,25.20
2016,04,20,14,15,25.20
2016,04,20,14,16,25.30
2016,04,20,14,17,25.30
2016,04,20,14,18,25.40
2016,04,20,14,19,25.40
2016,04,20,14,20,25.40
2016,04,20,14,21,25.40
2016,04,20,14,22,25.30
2016,04,20,14,23,25.10
2016,04,20,14,24,24.90
2016,04,20,14,25,24.70
2016,04,20,14,26,24.60
2016,04,20,14,27,24.50
2016,04,20,14,28,24.30
2016,04,20,14,29,24.20
2016,04,20,14,30,24.10
2016,04,20,14,31,24.00
2016,04,20,14,32,24.00
2016,04,20,14,33,23.90
2016,04,20,14,34,23.80
2016,04,20,14,35,23.80
2016,04,20,14,36,23.70
2016,04,20,14,37,23.70
2016,04,20,14,38,23.70
2016,04,20,14,39,23.70
2016,04,20,14,40,23.70
2016,04,20,14,41,23.70
2016,04,20,14,42,23.70
2016,04,20,14,43,23.60
2016,04,20,14,44,23.60
2016,04,20,14,45,23.60
2016,04,20,14,46,23.50
2016,04,20,14,47,23.50
2016,04,20,14,48,23.40
2016,04,20,14,49,23.40
2016,04,20,14,50,23.40
2016,04,20,14,51,23.40
2016,04,20,14,52,23.40
2016,04,20,14,53,23.40
2016,04,20,14,54,23.40
2016,04,20,14,55,23.40
2016,04,20,14,56,23.40
2016,04,20,14,57,23.50
2016,04,20,14,58,23.50
2016,04,20,14,59,23.50
2016,04,20,15,00,23.60
2016,04,20,15,01,23.60
2016,04,20,15,02,23.70
2016,04,20,15,03,23.70
2016,04,20,15,04,23.70
2016,04,20,15,05,23.70
2016,04,20,15,06,23.80
2016,04,20,15,07,23.80
2016,04,20,15,08,23.80
2016,04,20,15,09,23.80
2016,04,20,15,10,23.90
2016,04,20,15,11,23.80
2016,04,20,15,12,23.80
2016,04,20,15,13,23.80
2016,04,20,15,14,23.80
2016,04,20,15,15,23.80
2016,04,20,15,16,23.70
2016,04,20,15,17,23.70
2016,04,20,15,18,23.60
2016,04,20,15,19,23.60
2016,04,20,15,20,23.60
2016,04,20,15,21,23.50
2016,04,20,15,22,23.40
2016,04,20,15,23,23.30
2016,04,20,15,24,23.20
2016,04,20,15,25,23.10
2016,04,20,15,26,23.00
2016,04,20,15,27,22.90
2016,04,20,15,28,22.90
2016,04,20,15,29,22.80
2016,04,20,15,30,22.80
2016,04,20,15,31,22.80
2016,04,20,15,32,22.70
2016,04,20,15,33,22.70
2016,04,20,15,34,22.70
2016,04,20,15,35,22.70
2016,04,20,15,36,22.80
2016,04,20,15,37,22.80
2016,04,20,15,38,22.90
2016,04,20,15,39,23.00
2016,04,20,15,40,23.00
2016,04,20,15,41,23.10
2016,04,20,15,42,23.20
2016,04,20,15,43,23.20
2016,04,20,15,44,23.20
2016,04,20,15,45,23.30
2016,04,20,15,46,23.30
2016,04,20,15,47,23.30
2016,04,20,15,48,23.30
2016,04,20,15,49,23.30
2016,04,20,15,50,23.20
2016,04,20,15,51,23.10
2016,04,20,15,52,23.00
2016,04,20,15,53,22.90
2016,04,20,15,54,22.80
2016,04,20,15,55,22.70
2016,04,20,15,56,22.60
2016,04,20,15,57,22.60
2016,04,20,15,58,22.50
2016,04,20,15,59,22.40
2016,04,20,16,00,22.40
2016,04,20,16,01,22.40
2016,04,20,16,02,22.40
2016,04,20,16,03,22.50
2016,04,20,16,04,22.50
2016,04,20,16,05,22.50
2016,04,20,16,06,22.60
2016,04,20,16,07,22.60
2016,04,20,16,08,22.60
2016,04,20,16,09,22.60
2016,04,20,16,10,22.60
2016,04,20,16,11,22.70
2016,04,20,16,12,22.70
2016,04,20,16,13,22.80
2016,04,20,16,14,22.80
2016,04,20,16,15,22.90
2016,04,20,16,16,22.90
2016,04,20,16,17,22.90
2016,04,20,16,18,22.90
2016,04,20,16,19,22.90
2016,04,20,16,20,22.90
2016,04,20,16,21,22.80
2016,04,20,16,22,22.80
2016,04,20,16,23,22.80
2016,04,20,16,24,22.70
2016,04,20,16,25,22.70
2016,04,20,16,26,22.60
2016,04,20,16,27,22.50
2016,04,20,16,28,22.40
2016,04,20,16,29,22.30
2016,04,20,16,30,22.20
2016,04,20,16,31,22.10
2016,04,20,16,32,22.00
2016,04,20,16,33,21.90
2016,04,20,16,34,21.80
2016,04,20,16,35,21.70
2016,04,20,16,36,21.60
2016,04,20,16,37,21.40
2016,04,20,16,38,21.00
2016,04,20,16,39,20.70
2016,04,20,16,40,20.40
2016,04,20,16,41,20.10
2016,04,20,16,42,19.90
2016,04,20,16,43,19.80
2016,04,20,16,44,19.60
2016,04,20,16,45,19.60
2016,04,20,16,46,19.50
2016,04,20,16,47,19.40
2016,04,20,16,48,19.30
2016,04,20,16,49,19.20
2016,04,20,16,50,19.20
2016,04,20,16,51,19.20
2016,04,20,16,52,19.20
2016,04,20,16,53,19.30
2016,04,20,16,54,19.30
2016,04,20,16,55,19.30
2016,04,20,16,56,19.30
2016,04,20,16,57,19.30
2016,04,20,16,58,19.30
2016,04,20,16,59,19.30
2016,04,20,17,00,19.30
2016,04,20,17,01,19.30
2016,04,20,17,02,19.30
2016,04,20,17,03,19.40
2016,04,20,17,04,19.40
2016,04,20,17,05,19.50
2016,04,20,17,06,19.50
2016,04,20,17,07,19.60
2016,04,20,17,08,19.70
2016,04,20,17,09,19.70
2016,04,20,17,10,19.80
2016,04,20,17,11,19.80
2016,04,20,17,12,19.80
2016,04,20,17,13,19.80
2016,04,20,17,14,19.70
2016,04,20,17,15,19.70
2016,04,20,17,16,19.70
2016,04,20,17,17,19.60
2016,04,20,17,18,19.60
2016,04,20,17,19,19.50